Location: Waldport
(44.4270°N, 124.0680°W)
Time: 11:58:02
(UTC-08:00)

Daily predictions for brighter satellites

Satellite Brightness Start Highest point End
(mag) Time Altitude Azimuth Time Altitude Azimuth Time Altitude Azimuth
Cosmos 2227 Rocket 3.1 18:17:01 10° SW 18:22:30 52° WNW 18:28:03 10° NNE
FREGAT/IRIS 4.0 18:24:24 10° ESE 18:26:37 20° ENE 18:28:52 10° NNE
SL-16 R/B 2.5 18:23:47 10° NNW 18:29:27 75° WSW 18:35:05 10° SSE
H-2A R/B 3.2 18:27:54 10° SE 18:31:35 41° ENE 18:35:15 10° N
COSMO-SKYMED 1 2.6 18:28:24 10° NNE 18:32:47 90° WNW 18:37:07 10° SSW
Envisat 4.2 18:29:20 10° ESE 18:33:08 22° ENE 18:36:57 10° NNE
SL-8 R/B 3.9 18:29:50 10° WSW 18:34:37 70° NNW 18:39:24 10° ENE
Aureole 3 3.8 18:29:32 10° S 18:34:57 89° W 18:39:10 10° N
Cosmos 2297 Rocket 3.3 18:30:16 10° SW 18:35:42 47° WNW 18:41:12 10° NNE
NOSS 3-2 (C) 4.5 18:30:29 10° WSW 18:36:19 47° NW 18:42:49 10° NNE
FALCON 9 R/B 4.3 18:35:49 10° WSW 18:41:53 48° S 19:03:16 10° ESE
USA 186 3.9 18:42:26 11° ENE 18:42:46 11° ENE 18:43:43 10° NE
Cosmos 921 Rocket 3.0 18:38:36 10° NNW 18:43:09 77° ENE 18:47:35 10° SSE
Sich 1 Rocket 3.6 18:39:05 10° S 18:43:29 58° E 18:47:51 10° NNE
CZ-4C R/B 3.5 18:37:07 10° NNW 18:43:30 37° NE 18:50:38 10° ESE
Cosmos 1812 3.8 18:40:00 10° NNW 18:43:46 50° W 18:47:31 10° S
Cosmos 1110 Rocket 4.4 18:41:06 10° N 18:46:10 44° ENE 18:51:13 10° SE
CENTAUR R/B 2.7 18:40:18 10° SW 18:46:21 82° NW 18:53:22 10° NE
Cosmos 1603 3.8 18:42:58 10° NNW 18:48:33 56° ENE 18:54:03 10° SE
Meteor 1-4 Rocket 3.6 18:46:59 10° SSE 18:49:54 24° E 18:52:51 10° NE
SJ-6B 3.6 18:47:21 10° SE 18:50:42 30° ENE 18:54:09 10° N
Okean 2 Rocket 3.7 18:49:00 10° SSE 18:52:57 34° E 18:56:56 10° NNE
Cosmos 1269 Rocket 4.0 18:48:25 10° S 18:53:40 71° ESE 18:58:56 10° NNE
Thor Agena Rocket 4.3 18:50:48 10° NE 18:55:10 28° E 18:59:29 10° SSE
Tsikada Rocket 4.2 18:50:17 10° SSE 18:56:27 52° E 19:02:38 10° NNE
USA 267 4.3 18:51:14 10° ENE 18:56:46 32° N 19:02:22 10° NW
CZ-2D R/B 4.0 18:54:49 10° SE 18:58:17 31° ENE 19:01:44 10° N
USA 32 4.0 18:53:25 10° S 18:58:36 71° E 19:03:49 10° N
Iridium 4 Rocket 3.1 18:53:56 10° N 18:58:41 84° E 19:03:03 10° S
COSMOS 2455 3.4 18:53:37 10° S 18:59:01 36° ESE 19:04:27 10° NE
Cosmos 2263 Rocket 3.1 18:55:10 10° SSE 18:59:40 26° ESE 19:04:12 10° NE
ALOS 3.7 18:57:41 10° SSW 19:02:05 41° W 19:06:32 10° NNW
Cosmos 1464 Rocket 4.2 18:56:12 10° NNW 19:02:20 74° W 19:08:26 10° S
Cosmos 1908 Rocket 4.0 18:58:22 10° SSW 19:02:49 66° W 19:07:16 10° N
Cosmos 1602 3.7 18:59:48 10° S 19:03:37 58° E 19:07:27 10° NNE
Okean 1 3.5 19:01:05 10° NNW 19:05:05 75° W 19:09:02 10° S
Meteor 1-13 Rocket 4.2 19:03:24 10° N 19:08:51 56° ENE 19:14:15 10° SSE
YAOGAN 6 4.2 19:11:57 18° NE 19:11:57 18° NE 19:13:49 10° NNE
ATLAS CENTAUR R/B 1.9 19:09:14 10° NNW 19:13:11 41° NE 19:15:25 23° ESE
Cosmos 1331 Rocket 4.0 19:09:48 10° NNW 19:15:07 68° ENE 19:20:23 10° SSE
EO 1 Del DPAF 3.9 19:13:49 10° N 19:17:36 57° WNW 19:21:20 10° SSW
BREEZE-M DEB (TANK) 1.7 19:18:12 10° WNW 19:20:32 71° SSW 19:21:57 27° SE
Spot 2 Rocket 4.3 19:20:40 24° ESE 19:22:30 30° ENE 19:26:55 10° N
Cosmos 2346 Rocket 4.4 19:19:35 10° S 19:25:42 66° E 19:31:47 10° NNE
H-2A R/B 4.3 19:27:54 10° NE 19:27:54 10° NE 19:27:57 10° NE
Cosmos 1975 Rocket 3.5 19:23:17 10° NNW 19:27:42 64° W 19:32:07 10° S
ARGOS Delta rocket 3.7 19:24:39 10° NNE 19:29:24 60° E 19:33:52 10° S
Cosmos 1437 Rocket 3.8 19:26:42 10° SSW 19:30:40 50° WNW 19:34:43 10° N
Cosmos 2227 4.3 19:26:23 10° SSW 19:32:07 79° WNW 19:37:50 10° NNE
Resurs 1-3 4.0 19:31:42 32° ESE 19:33:02 41° ENE 19:37:10 10° N
Meteor 2-4 Rocket 3.6 19:27:26 10° N 19:33:14 75° E 19:38:49 10° SSE
Meteor 1-5 Rocket 4.4 19:30:49 10° S 19:36:31 53° E 19:42:19 10° NNE
BREEZE-M R/B 4.2 19:33:50 10° WNW 19:36:33 55° SSW 19:41:53 18° SE
Cosmos 1184 Rocket 2.6 19:34:03 10° N 19:37:21 89° WSW 19:39:04 26° S
Cosmos 1536 2.8 19:34:59 10° S 19:38:56 56° E 19:42:57 10° NNE
Lacrosse 5 rocket 3.2 19:37:54 10° S 19:38:39 14° S 19:38:39 14° S
Cosmos 2251 Rocket 3.5 19:36:37 10° S 19:41:42 55° ESE 19:46:49 10° NNE
SeaSat 1 2.4 19:41:29 29° SE 19:43:57 67° ENE 19:48:52 10° NNW
Cosmos 1302 Rocket 3.9 19:42:18 10° NNW 19:47:31 73° ENE 19:50:10 29° SSE
ERS-2 3.9 19:45:32 10° SSW 19:48:53 32° W 19:52:14 10° NNW
Cosmos 1634 Rocket 3.8 19:43:54 10° N 19:50:06 80° E 19:56:16 10° S
Cosmos 1943 3.2 19:46:10 10° NNW 19:51:51 84° WSW 19:55:58 19° SSE
Resurs 01 Rocket 1.5 19:53:51 49° SE 19:54:55 70° ENE 19:59:21 10° N
Alouette 2 Rocket 3.4 19:52:46 10° SSW 19:56:17 69° WNW 20:00:18 10° N
Cosmos 1536 Rocket 3.4 19:53:52 10° N 19:58:18 84° E 19:59:37 45° SSE
Meteor 1-11 Rocket 3.9 19:53:27 10° SSW 19:59:02 74° WNW 20:04:49 10° N
Cosmos 2142 Rocket 4.4 19:55:47 10° N 20:02:10 84° E 20:08:25 10° S
USA 215 3.2 20:02:13 38° ENE 20:04:39 59° SE 20:11:05 10° SW
Gbstr 26 Del rocket 3.2 20:05:26 10° WSW 20:09:07 55° NNW 20:09:08 55° NNW
Cosmos 1939 Rocket 2.9 20:11:20 79° NW 20:11:20 79° NW 20:15:16 10° NNW
Envisat 3.7 20:06:51 10° S 20:11:48 52° W 20:16:46 10° NNW
USA 186 3.3 20:13:59 36° NW 20:13:59 36° NW 20:16:20 10° NNW
SL-8 R/B 4.1 20:12:53 10° WNW 20:17:34 52° N 20:17:38 52° N
SL-24 DEB 4.3 20:19:12 10° N 20:23:29 72° NW 20:23:29 72° NW
Meteor 2-20 4.3 20:19:41 10° S 20:25:47 72° E 20:31:57 10° NNE
SJ-11-01 4.4 20:30:02 71° W 20:30:02 71° W 20:34:37 10° NNW
CZ-4C R/B 3.1 20:25:26 10° NW 20:32:36 68° WSW 20:35:53 38° SSE
CENTAUR R/B 4.4 20:32:53 10° W 20:38:12 26° NNW 20:44:09 10° NNE
USA 267 3.4 20:38:35 56° NE 20:39:00 57° NNE 20:45:23 10° NW
Cosmos 2263 Rocket 3.0 20:37:52 10° SW 20:43:16 49° WNW 20:48:38 10° NNE
Cosmos 2180 Rocket 4.4 20:38:05 10° N 20:44:20 82° W 20:44:54 74° SSW
COSMOS 2455 3.9 20:39:07 10° WSW 20:44:50 44° NW 20:49:51 14° NNE
ATLAS CENTAUR R/B 3.5 20:48:32 10° WNW 20:51:44 24° WSW 20:51:44 24° WSW
H-2A R/B 3.9 21:08:31 23° N 21:08:31 23° N 21:10:32 10° N
USA 215 4.3 21:49:35 39° WNW 21:49:35 39° WNW 21:53:53 10° W
